Wolke Sonne

Wetter Ammerndorf

Gehe zu: Roßtal

Tageswerte vom Mittwoch, 09.03.2022

Optionen

Tag:
Erweitert:

Alle Werte vom Mittwoch, 09.03.2022

Einen Moment bitte, die Daten werden aufbereitet...

UhrzeitTemperaturBoden 10cmBoden 20cmFeuchteLuftdruckNiederschlagEvapotranspirationWindWindböenWindrichtungSolarstrahlungUV-IndexSonne?Uhrzeit
Diagramm IconDiagramm IconDiagramm IconDiagramm IconDiagramm IconDiagramm IconDiagramm IconDiagramm IconDiagramm IconDiagramm IconDiagramm IconDiagramm IconDiagramm Icon
00:00-4,8 °C 2,2 °C 2,8 °C 83 % 1027,7 hPa 0,0 mm - 0,0 km/h 0,0 km/h S 0,0 W/qm 0,0 nein 00:00
00:05-4,8 °C 2,2 °C 2,8 °C 83 % 1027,7 hPa 0,0 mm 0,0 mm 0,0 km/h 0,0 km/h S 0,0 W/qm 0,0 nein 00:05
00:10-4,8 °C 2,2 °C 2,8 °C 83 % 1027,7 hPa 0,0 mm 0,0 mm 0,0 km/h 0,0 km/h S 0,0 W/qm 0,0 nein 00:10
00:15-4,9 °C 2,2 °C 2,8 °C 83 % 1027,8 hPa 0,0 mm - 0,0 km/h 0,0 km/h S 0,0 W/qm 0,0 nein 00:15
00:20-5,0 °C 2,2 °C 2,8 °C 83 % 1027,7 hPa 0,0 mm - 0,0 km/h 0,0 km/h S 0,0 W/qm 0,0 nein 00:20
00:25-5,1 °C 2,2 °C 2,8 °C 83 % 1027,8 hPa 0,0 mm - 0,0 km/h 0,0 km/h S 0,0 W/qm 0,0 nein 00:25
00:30-5,0 °C 2,2 °C 2,8 °C 84 % 1027,8 hPa 0,0 mm - 0,0 km/h 0,0 km/h S 0,0 W/qm 0,0 nein 00:30
00:35-5,0 °C 2,2 °C 2,8 °C 84 % 1027,8 hPa 0,0 mm - 0,0 km/h 0,0 km/h S 0,0 W/qm 0,0 nein 00:35
00:40-4,9 °C 2,2 °C 2,8 °C 84 % 1027,8 hPa 0,0 mm - 0,0 km/h 0,0 km/h S 0,0 W/qm 0,0 nein 00:40
00:45-5,1 °C 2,2 °C 2,8 °C 84 % 1027,8 hPa 0,0 mm - 0,0 km/h 0,0 km/h S 0,0 W/qm 0,0 nein 00:45
00:50-5,2 °C 2,2 °C 2,8 °C 84 % 1027,8 hPa 0,0 mm - 0,0 km/h 0,0 km/h S 0,0 W/qm 0,0 nein 00:50
00:55-5,3 °C 2,2 °C 2,8 °C 84 % 1027,9 hPa 0,0 mm - 0,0 km/h 0,0 km/h S 0,0 W/qm 0,0 nein 00:55
01:00-5,3 °C 2,2 °C 2,8 °C 85 % 1027,8 hPa 0,0 mm - 0,0 km/h 0,0 km/h S 0,0 W/qm 0,0 nein 01:00
01:05-5,4 °C 1,7 °C 2,8 °C 84 % 1027,9 hPa 0,0 mm 0,0 mm 0,0 km/h 0,0 km/h S 0,0 W/qm 0,0 nein 01:05
01:10-5,5 °C 1,7 °C 2,8 °C 85 % 1027,9 hPa 0,0 mm 0,0 mm 0,0 km/h 0,0 km/h S 0,0 W/qm 0,0 nein 01:10
01:15-5,4 °C 1,7 °C 2,8 °C 85 % 1028,0 hPa 0,0 mm - 0,0 km/h 0,0 km/h S 0,0 W/qm 0,0 nein 01:15
01:20-5,6 °C 1,7 °C 2,8 °C 85 % 1027,9 hPa 0,0 mm - 0,0 km/h 0,0 km/h S 0,0 W/qm 0,0 nein 01:20
01:25-5,6 °C 1,7 °C 2,8 °C 85 % 1028,0 hPa 0,0 mm - 0,0 km/h 0,0 km/h S 0,0 W/qm 0,0 nein 01:25
01:30-5,5 °C 1,7 °C 2,8 °C 85 % 1028,0 hPa 0,0 mm - 0,0 km/h 0,0 km/h S 0,0 W/qm 0,0 nein 01:30
01:35-5,6 °C 1,7 °C 2,8 °C 85 % 1028,0 hPa 0,0 mm - 0,0 km/h 0,0 km/h S 0,0 W/qm 0,0 nein 01:35
01:40-5,7 °C 1,7 °C 2,8 °C 85 % 1028,0 hPa 0,0 mm - 0,0 km/h 0,0 km/h S 0,0 W/qm 0,0 nein 01:40
01:45-5,7 °C 1,7 °C 2,8 °C 86 % 1028,0 hPa 0,0 mm - 0,0 km/h 0,0 km/h S 0,0 W/qm 0,0 nein 01:45
01:50-5,7 °C 1,7 °C 2,8 °C 85 % 1027,9 hPa 0,0 mm - 0,0 km/h 0,0 km/h S 0,0 W/qm 0,0 nein 01:50
01:55-5,7 °C 1,7 °C 2,8 °C 86 % 1027,9 hPa 0,0 mm - 0,0 km/h 0,0 km/h S 0,0 W/qm 0,0 nein 01:55
UhrzeitTemperaturBoden 10cmBoden 20cmFeuchteLuftdruckNiederschlagEvapotranspirationWindWindböenWindrichtungSolarstrahlungUV-IndexSonne?Uhrzeit
02:00-5,7 °C 1,7 °C 2,8 °C 86 % 1027,9 hPa 0,0 mm - 0,0 km/h 0,0 km/h S 0,0 W/qm 0,0 nein 02:00
02:05-5,8 °C 1,7 °C 2,8 °C 86 % 1027,9 hPa 0,0 mm 0,0 mm 0,0 km/h 0,0 km/h S 0,0 W/qm 0,0 nein 02:05
02:10-5,7 °C 1,7 °C 2,8 °C 86 % 1027,9 hPa 0,0 mm 0,0 mm 0,0 km/h 0,0 km/h S 0,0 W/qm 0,0 nein 02:10
02:15-5,8 °C 1,7 °C 2,8 °C 86 % 1027,9 hPa 0,0 mm - 0,0 km/h 0,0 km/h S 0,0 W/qm 0,0 nein 02:15
02:20-5,8 °C 1,7 °C 2,8 °C 86 % 1027,8 hPa 0,0 mm - 0,0 km/h 0,0 km/h S 0,0 W/qm 0,0 nein 02:20
02:25-5,8 °C 1,7 °C 2,8 °C 86 % 1027,8 hPa 0,0 mm - 0,0 km/h 0,0 km/h S 0,0 W/qm 0,0 nein 02:25
02:30-5,9 °C 1,7 °C 2,8 °C 86 % 1027,8 hPa 0,0 mm - 0,0 km/h 0,0 km/h S 0,0 W/qm 0,0 nein 02:30
02:35-6,1 °C 1,7 °C 2,8 °C 86 % 1027,9 hPa 0,0 mm - 0,0 km/h 0,0 km/h S 0,0 W/qm 0,0 nein 02:35
02:40-6,1 °C 1,7 °C 2,8 °C 86 % 1027,9 hPa 0,0 mm - 0,0 km/h 0,0 km/h S 0,0 W/qm 0,0 nein 02:40
02:45-6,1 °C 1,7 °C 2,8 °C 87 % 1027,9 hPa 0,0 mm - 0,0 km/h 0,0 km/h S 0,0 W/qm 0,0 nein 02:45
02:50-6,1 °C 1,7 °C 2,8 °C 87 % 1027,8 hPa 0,0 mm - 0,0 km/h 0,0 km/h S 0,0 W/qm 0,0 nein 02:50
02:55-6,2 °C 1,7 °C 2,8 °C 87 % 1027,9 hPa 0,0 mm - 0,0 km/h 0,0 km/h S 0,0 W/qm 0,0 nein 02:55
03:00-6,2 °C 1,7 °C 2,8 °C 87 % 1027,8 hPa 0,0 mm - 0,0 km/h 0,0 km/h S 0,0 W/qm 0,0 nein 03:00
03:05-6,3 °C 1,7 °C 2,8 °C 87 % 1027,8 hPa 0,0 mm 0,0 mm 0,0 km/h 0,0 km/h S 0,0 W/qm 0,0 nein 03:05
03:10-6,3 °C 1,7 °C 2,8 °C 87 % 1027,7 hPa 0,0 mm 0,0 mm 0,0 km/h 0,0 km/h S 0,0 W/qm 0,0 nein 03:10
03:15-6,4 °C 1,7 °C 2,8 °C 87 % 1027,8 hPa 0,0 mm - 0,0 km/h 0,0 km/h S 0,0 W/qm 0,0 nein 03:15
03:20-6,4 °C 1,7 °C 2,8 °C 87 % 1027,8 hPa 0,0 mm - 0,0 km/h 0,0 km/h S 0,0 W/qm 0,0 nein 03:20
03:25-6,4 °C 1,7 °C 2,8 °C 88 % 1027,8 hPa 0,0 mm - 0,0 km/h 0,0 km/h S 0,0 W/qm 0,0 nein 03:25
03:30-6,4 °C 1,7 °C 2,8 °C 87 % 1027,9 hPa 0,0 mm - 0,0 km/h 0,0 km/h S 0,0 W/qm 0,0 nein 03:30
03:35-6,4 °C 1,7 °C 2,8 °C 87 % 1027,8 hPa 0,0 mm - 0,0 km/h 0,0 km/h S 0,0 W/qm 0,0 nein 03:35
03:40-6,5 °C 1,7 °C 2,8 °C 87 % 1027,8 hPa 0,0 mm - 0,0 km/h 0,0 km/h S 0,0 W/qm 0,0 nein 03:40
03:45-6,6 °C 1,7 °C 2,8 °C 88 % 1027,7 hPa 0,0 mm - 0,0 km/h 0,0 km/h S 0,0 W/qm 0,0 nein 03:45
03:50-6,5 °C 1,7 °C 2,8 °C 88 % 1027,9 hPa 0,0 mm - 0,0 km/h 0,0 km/h S 0,0 W/qm 0,0 nein 03:50
03:55-6,5 °C 1,7 °C 2,8 °C 88 % 1027,9 hPa 0,0 mm - 0,0 km/h 0,0 km/h S 0,0 W/qm 0,0 nein 03:55
UhrzeitTemperaturBoden 10cmBoden 20cmFeuchteLuftdruckNiederschlagEvapotranspirationWindWindböenWindrichtungSolarstrahlungUV-IndexSonne?Uhrzeit
04:00-6,5 °C 1,7 °C 2,8 °C 87 % 1028,0 hPa 0,0 mm - 0,0 km/h 0,0 km/h S 0,0 W/qm 0,0 nein 04:00
04:05-6,6 °C 1,7 °C 2,8 °C 87 % 1028,2 hPa 0,0 mm 0,0 mm 0,0 km/h 0,0 km/h S 0,0 W/qm 0,0 nein 04:05
04:10-6,7 °C 1,7 °C 2,8 °C 87 % 1028,3 hPa 0,0 mm 0,0 mm 0,0 km/h 0,0 km/h S 0,0 W/qm 0,0 nein 04:10
04:15-6,7 °C 1,7 °C 2,8 °C 87 % 1028,3 hPa 0,0 mm - 0,0 km/h 0,0 km/h S 0,0 W/qm 0,0 nein 04:15
04:20-6,7 °C 1,7 °C 2,8 °C 88 % 1028,4 hPa 0,0 mm - 0,0 km/h 0,0 km/h S 0,0 W/qm 0,0 nein 04:20
04:25-6,7 °C 1,7 °C 2,8 °C 88 % 1028,3 hPa 0,0 mm - 0,0 km/h 0,0 km/h S 0,0 W/qm 0,0 nein 04:25
04:30-6,8 °C 1,7 °C 2,8 °C 88 % 1028,3 hPa 0,0 mm - 0,0 km/h 0,0 km/h S 0,0 W/qm 0,0 nein 04:30
04:35-6,8 °C 1,7 °C 2,8 °C 88 % 1028,3 hPa 0,0 mm - 0,0 km/h 0,0 km/h S 0,0 W/qm 0,0 nein 04:35
04:40-6,8 °C 1,7 °C 2,8 °C 88 % 1028,3 hPa 0,0 mm - 0,0 km/h 0,0 km/h S 0,0 W/qm 0,0 nein 04:40
04:45-6,8 °C 1,7 °C 2,8 °C 88 % 1028,3 hPa 0,0 mm - 0,0 km/h 0,0 km/h S 0,0 W/qm 0,0 nein 04:45
04:50-6,8 °C 1,7 °C 2,8 °C 88 % 1028,3 hPa 0,0 mm - 0,0 km/h 0,0 km/h S 0,0 W/qm 0,0 nein 04:50
04:55-6,8 °C 1,7 °C 2,8 °C 88 % 1028,3 hPa 0,0 mm - 0,0 km/h 0,0 km/h S 0,0 W/qm 0,0 nein 04:55
05:00-6,7 °C 1,7 °C 2,8 °C 89 % 1028,4 hPa 0,0 mm - 0,0 km/h 0,0 km/h S 0,0 W/qm 0,0 nein 05:00
05:05-6,7 °C 1,7 °C 2,8 °C 89 % 1028,4 hPa 0,0 mm 0,0 mm 0,0 km/h 0,0 km/h S 0,0 W/qm 0,0 nein 05:05
05:10-6,8 °C 1,7 °C 2,8 °C 89 % 1028,3 hPa 0,0 mm 0,0 mm 0,0 km/h 0,0 km/h S 0,0 W/qm 0,0 nein 05:10
05:15-6,9 °C 1,7 °C 2,8 °C 89 % 1028,4 hPa 0,0 mm - 0,0 km/h 0,0 km/h S 0,0 W/qm 0,0 nein 05:15
05:20-6,9 °C 1,7 °C 2,8 °C 89 % 1028,4 hPa 0,0 mm - 0,0 km/h 0,0 km/h S 0,0 W/qm 0,0 nein 05:20
05:25-7,0 °C 1,7 °C 2,8 °C 89 % 1028,4 hPa 0,0 mm - 0,0 km/h 0,0 km/h S 0,0 W/qm 0,0 nein 05:25
05:30-7,0 °C 1,7 °C 2,8 °C 89 % 1028,4 hPa 0,0 mm - 0,0 km/h 0,0 km/h S 0,0 W/qm 0,0 nein 05:30
05:35-7,1 °C 1,7 °C 2,8 °C 89 % 1028,4 hPa 0,0 mm - 0,0 km/h 0,0 km/h S 0,0 W/qm 0,0 nein 05:35
05:40-7,1 °C 1,7 °C 2,8 °C 89 % 1028,5 hPa 0,0 mm - 0,0 km/h 0,0 km/h S 0,0 W/qm 0,0 nein 05:40
05:45-7,1 °C 1,7 °C 2,8 °C 89 % 1028,4 hPa 0,0 mm - 0,0 km/h 0,0 km/h S 0,0 W/qm 0,0 nein 05:45
05:50-7,2 °C 1,7 °C 2,8 °C 89 % 1028,6 hPa 0,0 mm - 0,0 km/h 0,0 km/h S 0,0 W/qm 0,0 nein 05:50
05:55-7,1 °C 1,7 °C 2,8 °C 89 % 1028,5 hPa 0,0 mm - 0,0 km/h 0,0 km/h S 0,0 W/qm 0,0 nein 05:55
UhrzeitTemperaturBoden 10cmBoden 20cmFeuchteLuftdruckNiederschlagEvapotranspirationWindWindböenWindrichtungSolarstrahlungUV-IndexSonne?Uhrzeit
06:00-7,2 °C 1,7 °C 2,8 °C 89 % 1028,8 hPa 0,0 mm - 0,0 km/h 0,0 km/h S 0,0 W/qm 0,0 nein 06:00
06:05-7,1 °C 1,7 °C 2,8 °C 89 % 1028,9 hPa 0,0 mm 0,0 mm 0,0 km/h 0,0 km/h S 0,0 W/qm 0,0 nein 06:05
06:10-7,1 °C 1,7 °C 2,8 °C 89 % 1029,0 hPa 0,0 mm 0,0 mm 0,0 km/h 0,0 km/h S 0,0 W/qm 0,0 nein 06:10
06:15-7,1 °C 1,7 °C 2,8 °C 89 % 1029,0 hPa 0,0 mm - 0,0 km/h 0,0 km/h S 0,0 W/qm 0,0 nein 06:15
06:20-7,1 °C 1,7 °C 2,8 °C 89 % 1029,1 hPa 0,0 mm - 0,0 km/h 0,0 km/h S 0,0 W/qm 0,0 nein 06:20
06:25-7,2 °C 1,7 °C 2,8 °C 89 % 1029,2 hPa 0,0 mm - 0,0 km/h 0,0 km/h S 0,0 W/qm 0,0 nein 06:25
06:30-7,2 °C 1,7 °C 2,8 °C 89 % 1029,2 hPa 0,0 mm - 0,0 km/h 0,0 km/h S 0,0 W/qm 0,0 nein 06:30
06:35-7,2 °C 1,7 °C 2,8 °C 89 % 1029,1 hPa 0,0 mm - 0,0 km/h 0,0 km/h S 0,0 W/qm 0,0 nein 06:35
06:40-7,2 °C 1,7 °C 2,2 °C 89 % 1029,2 hPa 0,0 mm - 0,0 km/h 0,0 km/h S 5,0 W/qm 0,0 nein 06:40
06:45-7,3 °C 1,7 °C 2,2 °C 89 % 1029,2 hPa 0,0 mm - 0,0 km/h 0,0 km/h S 7,0 W/qm 0,0 nein 06:45
06:50-7,2 °C 1,7 °C 2,2 °C 89 % 1029,3 hPa 0,0 mm - 0,0 km/h 0,0 km/h S 9,0 W/qm 0,0 nein 06:50
06:55-7,2 °C 1,7 °C 2,2 °C 89 % 1029,4 hPa 0,0 mm - 0,0 km/h 0,0 km/h S 11,0 W/qm 0,0 nein 06:55
07:00-7,3 °C 1,7 °C 2,2 °C 89 % 1029,4 hPa 0,0 mm - 0,0 km/h 0,0 km/h S 12,0 W/qm 0,0 nein 07:00
07:05-7,2 °C 1,7 °C 2,2 °C 89 % 1029,5 hPa 0,0 mm 0,0 mm 0,0 km/h 0,0 km/h S 14,0 W/qm 0,0 nein 07:05
07:10-7,3 °C 1,7 °C 2,2 °C 89 % 1029,5 hPa 0,0 mm 0,0 mm 0,0 km/h 0,0 km/h S 18,0 W/qm 0,0 nein 07:10
07:15-7,1 °C 1,7 °C 2,2 °C 89 % 1029,5 hPa 0,0 mm - 0,0 km/h 0,0 km/h S 19,0 W/qm 0,0 nein 07:15
07:20-7,0 °C 1,7 °C 2,2 °C 89 % 1029,4 hPa 0,0 mm - 0,0 km/h 0,0 km/h S 21,0 W/qm 0,0 nein 07:20
07:25-6,9 °C 1,7 °C 2,2 °C 90 % 1029,3 hPa 0,0 mm - 0,0 km/h 0,0 km/h S 21,0 W/qm 0,0 nein 07:25
07:30-6,9 °C 1,1 °C 2,2 °C 90 % 1029,3 hPa 0,0 mm - 0,0 km/h 0,0 km/h S 23,0 W/qm 0,0 nein 07:30
07:35-6,8 °C 1,1 °C 2,2 °C 90 % 1029,3 hPa 0,0 mm - 0,0 km/h 0,0 km/h S 25,0 W/qm 0,0 nein 07:35
07:40-6,7 °C 1,1 °C 2,2 °C 90 % 1029,4 hPa 0,0 mm - 0,0 km/h 0,0 km/h S 26,0 W/qm 0,0 nein 07:40
07:45-6,5 °C 1,1 °C 2,2 °C 90 % 1029,3 hPa 0,0 mm - 0,0 km/h 0,0 km/h S 28,0 W/qm 0,0 nein 07:45
07:50-6,5 °C 1,1 °C 2,2 °C 90 % 1029,3 hPa 0,0 mm - 0,0 km/h 0,0 km/h S 32,0 W/qm 0,0 nein 07:50
07:55-6,4 °C 1,1 °C 2,2 °C 90 % 1029,3 hPa 0,0 mm - 0,0 km/h 0,0 km/h S 39,0 W/qm 0,0 nein 07:55
UhrzeitTemperaturBoden 10cmBoden 20cmFeuchteLuftdruckNiederschlagEvapotranspirationWindWindböenWindrichtungSolarstrahlungUV-IndexSonne?Uhrzeit
08:00-6,4 °C 1,1 °C 2,2 °C 90 % 1029,2 hPa 0,0 mm - 0,0 km/h 0,0 km/h S 40,0 W/qm 0,0 nein 08:00
08:05-6,2 °C 1,1 °C 2,2 °C 90 % 1029,2 hPa 0,0 mm 0,0 mm 0,0 km/h 0,0 km/h S 42,0 W/qm 0,0 nein 08:05
08:10-5,9 °C 1,1 °C 2,2 °C 90 % 1029,2 hPa 0,0 mm 0,0 mm 0,0 km/h 0,0 km/h S 44,0 W/qm 0,0 nein 08:10
08:15-5,7 °C 1,1 °C 2,2 °C 90 % 1029,3 hPa 0,0 mm - 0,0 km/h 0,0 km/h S 44,0 W/qm 0,0 nein 08:15
08:20-5,5 °C 1,1 °C 2,2 °C 90 % 1029,3 hPa 0,0 mm - 0,0 km/h 0,0 km/h S 46,0 W/qm 0,0 nein 08:20
08:25-5,0 °C 1,1 °C 2,2 °C 90 % 1029,2 hPa 0,0 mm - 0,0 km/h 0,0 km/h S 47,0 W/qm 0,0 nein 08:25
08:30-4,8 °C 1,1 °C 2,2 °C 88 % 1029,2 hPa 0,0 mm - 0,0 km/h 0,0 km/h S 47,0 W/qm 0,0 nein 08:30
08:35-4,6 °C 1,1 °C 2,2 °C 88 % 1029,3 hPa 0,0 mm - 0,0 km/h 0,0 km/h S 49,0 W/qm 0,0 nein 08:35
08:40-4,0 °C 1,1 °C 2,2 °C 89 % 1029,3 hPa 0,0 mm - 0,0 km/h 0,0 km/h S 51,0 W/qm 0,0 nein 08:40
08:45-3,0 °C 1,1 °C 2,2 °C 88 % 1029,2 hPa 0,0 mm - 0,0 km/h 0,0 km/h S 272,0 W/qm 0,5 ja 08:45
08:50-2,7 °C 1,1 °C 2,2 °C 86 % 1029,2 hPa 0,0 mm - 0,0 km/h 0,0 km/h S 304,0 W/qm 0,5 ja 08:50
08:55-2,4 °C 1,1 °C 2,2 °C 85 % 1029,1 hPa 0,0 mm - 0,0 km/h 0,0 km/h S 304,0 W/qm 0,6 ja 08:55
09:00-2,2 °C 1,1 °C 2,2 °C 84 % 1029,1 hPa 0,0 mm - 0,0 km/h 0,0 km/h S 316,0 W/qm 0,6 ja 09:00
09:05-2,0 °C 1,1 °C 2,2 °C 85 % 1029,1 hPa 0,0 mm 0,0 mm 0,0 km/h 0,0 km/h S 338,0 W/qm 0,7 ja 09:05
09:10-1,6 °C 1,1 °C 2,2 °C 85 % 1029,0 hPa 0,0 mm 0,0 mm 0,0 km/h 0,0 km/h S 352,0 W/qm 0,7 ja 09:10
09:15-1,1 °C 1,1 °C 2,2 °C 83 % 1028,9 hPa 0,0 mm - 0,0 km/h 0,0 km/h S 366,0 W/qm 0,8 ja 09:15
09:20-0,4 °C 1,1 °C 2,2 °C 82 % 1028,8 hPa 0,0 mm - 0,0 km/h 0,0 km/h S 378,0 W/qm 0,8 ja 09:20
09:250,2 °C 1,1 °C 2,2 °C 79 % 1028,6 hPa 0,0 mm - 0,0 km/h 0,0 km/h O 388,0 W/qm 0,9 ja 09:25
09:301,0 °C 1,1 °C 2,2 °C 75 % 1028,6 hPa 0,0 mm - 0,0 km/h 0,0 km/h S 401,0 W/qm 0,9 ja 09:30
09:351,7 °C 1,1 °C 2,2 °C 72 % 1028,4 hPa 0,0 mm - 1,4 km/h 6,5 km/h S 413,0 W/qm 1,0 ja 09:35
09:402,1 °C 1,1 °C 2,2 °C 69 % 1028,4 hPa 0,0 mm - 1,4 km/h 6,5 km/h S 425,0 W/qm 1,0 ja 09:40
09:452,3 °C 1,1 °C 2,2 °C 68 % 1028,2 hPa 0,0 mm - 1,4 km/h 6,5 km/h S 436,0 W/qm 1,1 ja 09:45
09:502,3 °C 1,1 °C 2,2 °C 67 % 1028,2 hPa 0,0 mm - 1,4 km/h 6,5 km/h OSO 448,0 W/qm 1,1 ja 09:50
09:552,4 °C 1,1 °C 2,2 °C 68 % 1028,1 hPa 0,0 mm - 0,0 km/h 6,5 km/h O 457,0 W/qm 1,2 ja 09:55
UhrzeitTemperaturBoden 10cmBoden 20cmFeuchteLuftdruckNiederschlagEvapotranspirationWindWindböenWindrichtungSolarstrahlungUV-IndexSonne?Uhrzeit
10:002,8 °C 1,1 °C 2,2 °C 66 % 1028,0 hPa 0,0 mm - 1,4 km/h 4,7 km/h S 469,0 W/qm 1,2 ja 10:00
10:053,9 °C 1,1 °C 2,2 °C 64 % 1027,9 hPa 0,0 mm 0,2 mm 1,4 km/h 6,5 km/h S 480,0 W/qm 1,3 ja 10:05
10:104,1 °C 1,1 °C 2,2 °C 61 % 1027,9 hPa 0,0 mm 0,2 mm 3,2 km/h 6,5 km/h SO 490,0 W/qm 1,3 ja 10:10
10:154,3 °C 1,1 °C 2,2 °C 59 % 1027,8 hPa 0,0 mm - 1,4 km/h 7,9 km/h S 499,0 W/qm 1,3 ja 10:15
10:204,6 °C 1,1 °C 2,2 °C 59 % 1027,8 hPa 0,0 mm - 1,4 km/h 7,9 km/h SSO 508,0 W/qm 1,4 ja 10:20
10:254,9 °C 1,1 °C 2,2 °C 58 % 1027,7 hPa 0,0 mm - 3,2 km/h 7,9 km/h S 519,0 W/qm 1,4 ja 10:25
10:305,4 °C 1,1 °C 2,2 °C 57 % 1027,6 hPa 0,0 mm - 3,2 km/h 9,7 km/h SSO 526,0 W/qm 1,4 ja 10:30
10:355,3 °C 1,1 °C 2,2 °C 55 % 1027,6 hPa 0,0 mm - 3,2 km/h 9,7 km/h SO 536,0 W/qm 1,5 ja 10:35
10:405,6 °C 1,1 °C 2,2 °C 55 % 1027,5 hPa 0,0 mm - 3,2 km/h 9,7 km/h SSO 543,0 W/qm 1,5 ja 10:40
10:456,1 °C 1,1 °C 2,2 °C 51 % 1027,4 hPa 0,0 mm - 3,2 km/h 9,7 km/h S 554,0 W/qm 1,6 ja 10:45
10:506,1 °C 1,1 °C 2,2 °C 51 % 1027,3 hPa 0,0 mm - 4,7 km/h 9,7 km/h SSO 561,0 W/qm 1,6 ja 10:50
10:556,2 °C 1,1 °C 2,2 °C 51 % 1027,2 hPa 0,0 mm - 4,7 km/h 11,2 km/h OSO 568,0 W/qm 1,6 ja 10:55
11:006,6 °C 1,1 °C 2,2 °C 49 % 1027,2 hPa 0,0 mm - 4,7 km/h 11,2 km/h SSO 575,0 W/qm 1,7 ja 11:00
11:056,8 °C 1,1 °C 2,2 °C 49 % 1027,1 hPa 0,0 mm 0,4 mm 4,7 km/h 11,2 km/h SSO 582,0 W/qm 1,7 ja 11:05
11:107,0 °C 1,1 °C 2,2 °C 48 % 1027,0 hPa 0,0 mm 0,4 mm 4,7 km/h 11,2 km/h SSO 547,0 W/qm 1,7 ja 11:10
11:157,2 °C 1,1 °C 2,2 °C 47 % 1026,9 hPa 0,0 mm - 4,7 km/h 11,2 km/h S 592,0 W/qm 1,8 ja 11:15
11:207,2 °C 1,1 °C 2,2 °C 47 % 1026,9 hPa 0,0 mm - 4,7 km/h 13,0 km/h SSO 599,0 W/qm 1,8 ja 11:20
11:257,4 °C 1,7 °C 2,2 °C 46 % 1026,9 hPa 0,0 mm - 4,7 km/h 13,0 km/h SSO 606,0 W/qm 1,8 ja 11:25
11:307,9 °C 1,7 °C 2,2 °C 46 % 1026,8 hPa 0,0 mm - 4,7 km/h 13,0 km/h SO 608,0 W/qm 1,9 ja 11:30
11:358,0 °C 1,7 °C 2,2 °C 45 % 1026,8 hPa 0,0 mm - 6,5 km/h 13,0 km/h SO 612,0 W/qm 1,9 ja 11:35
11:407,6 °C 1,7 °C 2,2 °C 45 % 1026,9 hPa 0,0 mm - 6,5 km/h 16,2 km/h SSO 615,0 W/qm 1,9 ja 11:40
11:457,9 °C 1,7 °C 2,2 °C 44 % 1026,8 hPa 0,0 mm - 4,7 km/h 16,2 km/h NNO 617,0 W/qm 1,9 ja 11:45
11:508,3 °C 1,7 °C 2,2 °C 45 % 1026,7 hPa 0,0 mm - 4,7 km/h 16,2 km/h SSO 624,0 W/qm 1,9 ja 11:50
11:558,5 °C 1,7 °C 2,2 °C 47 % 1026,7 hPa 0,0 mm - 4,7 km/h 16,2 km/h S 624,0 W/qm 1,9 ja 11:55
UhrzeitTemperaturBoden 10cmBoden 20cmFeuchteLuftdruckNiederschlagEvapotranspirationWindWindböenWindrichtungSolarstrahlungUV-IndexSonne?Uhrzeit
12:008,9 °C 1,7 °C 2,2 °C 45 % 1026,5 hPa 0,0 mm - 4,7 km/h 16,2 km/h NO 626,0 W/qm 2,0 ja 12:00
12:058,3 °C 1,7 °C 2,2 °C 43 % 1026,6 hPa 0,0 mm 0,7 mm 3,2 km/h 16,2 km/h S 629,0 W/qm 2,0 ja 12:05
12:108,4 °C 1,7 °C 2,2 °C 43 % 1026,6 hPa 0,0 mm 0,7 mm 3,2 km/h 13,0 km/h SSW 629,0 W/qm 2,0 ja 12:10
12:158,8 °C 1,7 °C 2,2 °C 43 % 1026,6 hPa 0,0 mm - 3,2 km/h 11,2 km/h SSO 635,0 W/qm 2,0 ja 12:15
12:208,7 °C 1,7 °C 2,2 °C 42 % 1026,6 hPa 0,0 mm - 4,7 km/h 13,0 km/h S 633,0 W/qm 2,0 ja 12:20
12:258,9 °C 1,7 °C 2,2 °C 41 % 1026,5 hPa 0,0 mm - 3,2 km/h 13,0 km/h SO 638,0 W/qm 2,0 ja 12:25
12:309,2 °C 1,7 °C 2,2 °C 42 % 1026,4 hPa 0,0 mm - 4,7 km/h 13,0 km/h SW 635,0 W/qm 2,0 ja 12:30
12:359,5 °C 1,7 °C 2,2 °C 38 % 1026,3 hPa 0,0 mm - 4,7 km/h 9,7 km/h SSW 633,0 W/qm 2,0 ja 12:35
12:409,6 °C 1,7 °C 2,2 °C 39 % 1026,2 hPa 0,0 mm - 4,7 km/h 11,2 km/h SO 636,0 W/qm 2,0 ja 12:40
12:459,8 °C 1,7 °C 2,2 °C 37 % 1026,2 hPa 0,0 mm - 4,7 km/h 11,2 km/h SSW 633,0 W/qm 2,0 ja 12:45
12:509,6 °C 1,7 °C 2,2 °C 38 % 1026,1 hPa 0,0 mm - 4,7 km/h 11,2 km/h ONO 635,0 W/qm 2,0 ja 12:50
12:559,6 °C 1,7 °C 2,2 °C 36 % 1026,0 hPa 0,0 mm - 3,2 km/h 11,2 km/h S 635,0 W/qm 2,0 ja 12:55
13:0010,0 °C 2,2 °C 2,2 °C 36 % 1026,0 hPa 0,0 mm - 4,7 km/h 11,2 km/h SSO 633,0 W/qm 2,0 ja 13:00
13:059,6 °C 2,2 °C 2,2 °C 38 % 1025,9 hPa 0,0 mm 1,0 mm 3,2 km/h 14,4 km/h NNO 629,0 W/qm 2,0 ja 13:05
13:109,8 °C 2,2 °C 2,2 °C 36 % 1025,9 hPa 0,0 mm 1,0 mm 3,2 km/h 14,4 km/h SSW 626,0 W/qm 1,9 ja 13:10
13:159,7 °C 2,2 °C 2,2 °C 36 % 1025,8 hPa 0,0 mm - 3,2 km/h 14,4 km/h ONO 621,0 W/qm 1,9 ja 13:15
13:2010,4 °C 2,2 °C 2,2 °C 35 % 1025,6 hPa 0,0 mm - 3,2 km/h 9,7 km/h S 619,0 W/qm 1,9 ja 13:20
13:2510,7 °C 2,2 °C 2,2 °C 33 % 1025,6 hPa 0,0 mm - 6,5 km/h 9,7 km/h SSO 613,0 W/qm 1,9 ja 13:25
13:3010,1 °C 2,2 °C 2,2 °C 34 % 1025,7 hPa 0,0 mm - 4,7 km/h 13,0 km/h NO 610,0 W/qm 1,8 ja 13:30
13:3510,1 °C 2,2 °C 2,2 °C 33 % 1025,6 hPa 0,0 mm - 4,7 km/h 13,0 km/h S 596,0 W/qm 1,8 ja 13:35
13:4010,4 °C 2,2 °C 2,2 °C 34 % 1025,5 hPa 0,0 mm - 4,7 km/h 13,0 km/h OSO 601,0 W/qm 1,8 ja 13:40
13:4510,4 °C 2,2 °C 2,2 °C 32 % 1025,4 hPa 0,0 mm - 4,7 km/h 13,0 km/h S 599,0 W/qm 1,8 ja 13:45
13:5010,4 °C 2,2 °C 2,2 °C 33 % 1025,4 hPa 0,0 mm - 3,2 km/h 13,0 km/h NO 592,0 W/qm 1,7 ja 13:50
13:5510,4 °C 2,8 °C 2,2 °C 35 % 1025,4 hPa 0,0 mm - 3,2 km/h 11,2 km/h NO 587,0 W/qm 1,7 ja 13:55
UhrzeitTemperaturBoden 10cmBoden 20cmFeuchteLuftdruckNiederschlagEvapotranspirationWindWindböenWindrichtungSolarstrahlungUV-IndexSonne?Uhrzeit
14:0010,3 °C 2,8 °C 2,2 °C 34 % 1025,3 hPa 0,0 mm - 4,7 km/h 11,2 km/h NO 580,0 W/qm 1,7 ja 14:00
14:0510,3 °C 2,8 °C 2,8 °C 35 % 1025,2 hPa 0,0 mm 1,3 mm 4,7 km/h 11,2 km/h ONO 573,0 W/qm 1,6 ja 14:05
14:1010,4 °C 2,8 °C 2,8 °C 32 % 1025,3 hPa 0,0 mm 1,3 mm 4,7 km/h 13,0 km/h S 568,0 W/qm 1,6 ja 14:10
14:1510,9 °C 2,8 °C 2,8 °C 31 % 1025,2 hPa 0,0 mm - 3,2 km/h 13,0 km/h SO 563,0 W/qm 1,6 ja 14:15
14:2010,9 °C 2,8 °C 2,8 °C 30 % 1025,2 hPa 0,0 mm - 3,2 km/h 11,2 km/h SSW 555,0 W/qm 1,5 ja 14:20
14:2511,0 °C 2,8 °C 2,8 °C 30 % 1025,1 hPa 0,0 mm - 3,2 km/h 9,7 km/h SSO 547,0 W/qm 1,5 ja 14:25
14:3011,2 °C 2,8 °C 2,8 °C 31 % 1025,1 hPa 0,0 mm - 1,4 km/h 9,7 km/h SSO 540,0 W/qm 1,5 ja 14:30
14:3511,1 °C 2,8 °C 2,8 °C 30 % 1025,1 hPa 0,0 mm - 1,4 km/h 7,9 km/h OSO 531,0 W/qm 1,4 ja 14:35
14:4011,2 °C 2,8 °C 2,8 °C 30 % 1025,1 hPa 0,0 mm - 4,7 km/h 9,7 km/h SW 520,0 W/qm 1,4 ja 14:40
14:4511,4 °C 2,8 °C 2,8 °C 29 % 1025,0 hPa 0,0 mm - 4,7 km/h 14,4 km/h SSW 512,0 W/qm 1,3 ja 14:45
14:5011,2 °C 3,3 °C 2,8 °C 30 % 1025,1 hPa 0,0 mm - 3,2 km/h 14,4 km/h O 501,0 W/qm 1,3 ja 14:50
14:5510,9 °C 3,3 °C 2,8 °C 32 % 1025,0 hPa 0,0 mm - 3,2 km/h 14,4 km/h SSO 492,0 W/qm 1,3 ja 14:55
15:0010,7 °C 3,3 °C 2,8 °C 32 % 1025,1 hPa 0,0 mm - 4,7 km/h 14,4 km/h OSO 480,0 W/qm 1,2 ja 15:00
15:0511,0 °C 3,3 °C 2,8 °C 33 % 1025,0 hPa 0,0 mm 1,6 mm 4,7 km/h 14,4 km/h O 471,0 W/qm 1,2 ja 15:05
15:1010,7 °C 3,3 °C 2,8 °C 31 % 1025,1 hPa 0,0 mm 1,6 mm 3,2 km/h 14,4 km/h SO 459,0 W/qm 1,1 ja 15:10
15:1510,8 °C 3,3 °C 2,8 °C 31 % 1025,0 hPa 0,0 mm - 1,4 km/h 13,0 km/h NO 446,0 W/qm 1,1 ja 15:15
15:2010,8 °C 3,3 °C 2,8 °C 33 % 1024,9 hPa 0,0 mm - 3,2 km/h 13,0 km/h ONO 436,0 W/qm 1,0 ja 15:20
15:2510,7 °C 3,3 °C 2,8 °C 32 % 1025,0 hPa 0,0 mm - 4,7 km/h 14,4 km/h ONO 427,0 W/qm 1,0 ja 15:25
15:3010,8 °C 3,3 °C 2,8 °C 32 % 1025,0 hPa 0,0 mm - 3,2 km/h 14,4 km/h O 415,0 W/qm 0,9 ja 15:30
15:3510,9 °C 3,3 °C 2,8 °C 34 % 1024,8 hPa 0,0 mm - 1,4 km/h 14,4 km/h NO 404,0 W/qm 0,9 ja 15:35
15:4010,9 °C 3,3 °C 2,8 °C 31 % 1024,7 hPa 0,0 mm - 3,2 km/h 11,2 km/h O 390,0 W/qm 0,8 ja 15:40
15:4510,8 °C 3,3 °C 2,8 °C 33 % 1024,7 hPa 0,0 mm - 3,2 km/h 11,2 km/h S 378,0 W/qm 0,8 ja 15:45
15:5011,3 °C 3,3 °C 2,8 °C 31 % 1024,7 hPa 0,0 mm - 3,2 km/h 11,2 km/h NO 364,0 W/qm 0,8 ja 15:50
15:5511,1 °C 3,3 °C 2,8 °C 32 % 1024,7 hPa 0,0 mm - 3,2 km/h 16,2 km/h SSO 352,0 W/qm 0,7 ja 15:55
UhrzeitTemperaturBoden 10cmBoden 20cmFeuchteLuftdruckNiederschlagEvapotranspirationWindWindböenWindrichtungSolarstrahlungUV-IndexSonne?Uhrzeit
16:0011,3 °C 3,3 °C 2,8 °C 31 % 1024,6 hPa 0,0 mm - 3,2 km/h 16,2 km/h S 343,0 W/qm 0,7 ja 16:00
16:0511,4 °C 3,3 °C 2,8 °C 30 % 1024,7 hPa 0,0 mm 1,8 mm 3,2 km/h 16,2 km/h OSO 327,0 W/qm 0,6 ja 16:05
16:1011,3 °C 3,3 °C 2,8 °C 31 % 1024,7 hPa 0,0 mm 1,8 mm 1,4 km/h 11,2 km/h SSO 313,0 W/qm 0,6 ja 16:10
16:1511,6 °C 3,3 °C 2,8 °C 31 % 1024,6 hPa 0,0 mm - 1,4 km/h 11,2 km/h SSO 297,0 W/qm 0,6 ja 16:15
16:2011,4 °C 3,3 °C 2,8 °C 30 % 1024,7 hPa 0,0 mm - 1,4 km/h 11,2 km/h SSO 281,0 W/qm 0,5 ja 16:20
16:2510,9 °C 3,3 °C 2,8 °C 30 % 1024,7 hPa 0,0 mm - 1,4 km/h 7,9 km/h O 264,0 W/qm 0,5 ja 16:25
16:3011,1 °C 3,3 °C 2,8 °C 31 % 1024,7 hPa 0,0 mm - 3,2 km/h 6,5 km/h SSO 246,0 W/qm 0,5 ja 16:30
16:3510,9 °C 3,3 °C 2,8 °C 31 % 1024,7 hPa 0,0 mm - 3,2 km/h 11,2 km/h S 229,0 W/qm 0,0 ja 16:35
16:4011,1 °C 3,3 °C 2,8 °C 31 % 1024,7 hPa 0,0 mm - 1,4 km/h 11,2 km/h S 213,0 W/qm 0,0 nein 16:40
16:4511,2 °C 3,3 °C 2,8 °C 31 % 1024,7 hPa 0,0 mm - 1,4 km/h 11,2 km/h SSO 195,0 W/qm 0,0 nein 16:45
16:5011,3 °C 3,3 °C 2,8 °C 31 % 1024,7 hPa 0,0 mm - 3,2 km/h 9,7 km/h SSO 178,0 W/qm 0,0 nein 16:50
16:5511,4 °C 3,3 °C 2,8 °C 30 % 1024,7 hPa 0,0 mm - 3,2 km/h 7,9 km/h SSW 160,0 W/qm 0,0 nein 16:55
17:0011,2 °C 3,3 °C 2,8 °C 31 % 1024,7 hPa 0,0 mm - 1,4 km/h 7,9 km/h SSO 142,0 W/qm 0,0 nein 17:00
17:0511,0 °C 3,3 °C 2,8 °C 31 % 1024,6 hPa 0,0 mm 1,9 mm 1,4 km/h 7,9 km/h S 98,0 W/qm 0,0 nein 17:05
17:1010,8 °C 3,3 °C 2,8 °C 31 % 1024,7 hPa 0,0 mm 1,9 mm 1,4 km/h 6,5 km/h S 46,0 W/qm 0,0 nein 17:10
17:1510,1 °C 3,3 °C 2,8 °C 36 % 1024,8 hPa 0,0 mm - 1,4 km/h 6,5 km/h S 37,0 W/qm 0,0 nein 17:15
17:209,0 °C 3,3 °C 2,8 °C 40 % 1024,9 hPa 0,0 mm - 0,0 km/h 6,5 km/h S 32,0 W/qm 0,0 nein 17:20
17:258,4 °C 3,3 °C 3,3 °C 38 % 1025,0 hPa 0,0 mm - 0,0 km/h 4,7 km/h S 30,0 W/qm 0,0 nein 17:25
17:307,9 °C 3,3 °C 3,3 °C 41 % 1025,0 hPa 0,0 mm - 0,0 km/h 1,4 km/h S 26,0 W/qm 0,0 nein 17:30
17:357,4 °C 3,3 °C 3,3 °C 42 % 1025,1 hPa 0,0 mm - 0,0 km/h 1,4 km/h S 23,0 W/qm 0,0 nein 17:35
17:407,1 °C 3,3 °C 3,3 °C 45 % 1025,1 hPa 0,0 mm - 0,0 km/h 1,4 km/h S 21,0 W/qm 0,0 nein 17:40
17:456,5 °C 3,3 °C 3,3 °C 45 % 1025,3 hPa 0,0 mm - 0,0 km/h 1,4 km/h S 19,0 W/qm 0,0 nein 17:45
17:506,1 °C 3,3 °C 3,3 °C 48 % 1025,4 hPa 0,0 mm - 0,0 km/h 0,0 km/h S 18,0 W/qm 0,0 nein 17:50
17:555,9 °C 3,3 °C 3,3 °C 49 % 1025,4 hPa 0,0 mm - 0,0 km/h 0,0 km/h S 14,0 W/qm 0,0 nein 17:55
UhrzeitTemperaturBoden 10cmBoden 20cmFeuchteLuftdruckNiederschlagEvapotranspirationWindWindböenWindrichtungSolarstrahlungUV-IndexSonne?Uhrzeit
18:005,8 °C 3,3 °C 3,3 °C 46 % 1025,5 hPa 0,0 mm - 0,0 km/h 0,0 km/h S 12,0 W/qm 0,0 nein 18:00
18:055,2 °C 3,3 °C 3,3 °C 50 % 1025,6 hPa 0,0 mm 1,9 mm 0,0 km/h 0,0 km/h S 11,0 W/qm 0,0 nein 18:05
18:105,2 °C 3,3 °C 3,3 °C 48 % 1025,7 hPa 0,0 mm 1,9 mm 0,0 km/h 0,0 km/h S 7,0 W/qm 0,0 nein 18:10
18:154,7 °C 3,3 °C 3,3 °C 53 % 1025,7 hPa 0,0 mm - 0,0 km/h 0,0 km/h S 5,0 W/qm 0,0 nein 18:15
18:204,2 °C 3,3 °C 3,3 °C 56 % 1025,9 hPa 0,0 mm - 0,0 km/h 0,0 km/h S 0,0 W/qm 0,0 nein 18:20
18:254,1 °C 3,3 °C 3,3 °C 51 % 1026,0 hPa 0,0 mm - 0,0 km/h 0,0 km/h S 0,0 W/qm 0,0 nein 18:25
18:303,6 °C 3,3 °C 3,3 °C 55 % 1026,1 hPa 0,0 mm - 0,0 km/h 0,0 km/h S 0,0 W/qm 0,0 nein 18:30
18:353,3 °C 3,3 °C 3,3 °C 55 % 1026,2 hPa 0,0 mm - 0,0 km/h 0,0 km/h S 0,0 W/qm 0,0 nein 18:35
18:403,4 °C 3,3 °C 3,3 °C 53 % 1026,2 hPa 0,0 mm - 0,0 km/h 0,0 km/h S 0,0 W/qm 0,0 nein 18:40
18:452,8 °C 3,3 °C 3,3 °C 58 % 1026,4 hPa 0,0 mm - 0,0 km/h 3,2 km/h S 0,0 W/qm 0,0 nein 18:45
18:502,6 °C 3,3 °C 3,3 °C 60 % 1026,5 hPa 0,0 mm - 0,0 km/h 3,2 km/h S 0,0 W/qm 0,0 nein 18:50
18:552,3 °C 3,3 °C 3,3 °C 61 % 1026,6 hPa 0,0 mm - 0,0 km/h 3,2 km/h S 0,0 W/qm 0,0 nein 18:55
19:002,2 °C 3,3 °C 3,3 °C 62 % 1026,7 hPa 0,0 mm - 0,0 km/h 0,0 km/h S 0,0 W/qm 0,0 nein 19:00
19:052,0 °C 3,3 °C 3,3 °C 62 % 1026,7 hPa 0,0 mm 1,9 mm 0,0 km/h 0,0 km/h S 0,0 W/qm 0,0 nein 19:05
19:101,7 °C 3,3 °C 3,3 °C 63 % 1026,8 hPa 0,0 mm 1,9 mm 0,0 km/h 0,0 km/h S 0,0 W/qm 0,0 nein 19:10
19:151,3 °C 3,3 °C 3,3 °C 65 % 1026,9 hPa 0,0 mm - 0,0 km/h 0,0 km/h S 0,0 W/qm 0,0 nein 19:15
19:201,1 °C 3,3 °C 3,3 °C 66 % 1027,0 hPa 0,0 mm - 0,0 km/h 0,0 km/h S 0,0 W/qm 0,0 nein 19:20
19:250,9 °C 3,3 °C 3,3 °C 67 % 1027,1 hPa 0,0 mm - 0,0 km/h 0,0 km/h S 0,0 W/qm 0,0 nein 19:25
19:300,7 °C 3,3 °C 3,3 °C 68 % 1027,1 hPa 0,0 mm - 0,0 km/h 0,0 km/h S 0,0 W/qm 0,0 nein 19:30
19:350,5 °C 3,3 °C 3,3 °C 69 % 1027,2 hPa 0,0 mm - 0,0 km/h 0,0 km/h S 0,0 W/qm 0,0 nein 19:35
19:400,4 °C 3,3 °C 3,3 °C 68 % 1027,3 hPa 0,0 mm - 0,0 km/h 0,0 km/h S 0,0 W/qm 0,0 nein 19:40
19:450,2 °C 3,3 °C 3,3 °C 70 % 1027,3 hPa 0,0 mm - 0,0 km/h 0,0 km/h S 0,0 W/qm 0,0 nein 19:45
19:500,0 °C 3,3 °C 3,3 °C 71 % 1027,3 hPa 0,0 mm - 0,0 km/h 0,0 km/h S 0,0 W/qm 0,0 nein 19:50
19:55-0,1 °C 3,3 °C 3,3 °C 71 % 1027,3 hPa 0,0 mm - 0,0 km/h 0,0 km/h S 0,0 W/qm 0,0 nein 19:55
UhrzeitTemperaturBoden 10cmBoden 20cmFeuchteLuftdruckNiederschlagEvapotranspirationWindWindböenWindrichtungSolarstrahlungUV-IndexSonne?Uhrzeit
20:00-0,1 °C 3,3 °C 3,3 °C 71 % 1027,4 hPa 0,0 mm - 0,0 km/h 0,0 km/h S 0,0 W/qm 0,0 nein 20:00
20:05-0,2 °C 3,3 °C 3,3 °C 71 % 1027,5 hPa 0,0 mm 1,9 mm 0,0 km/h 0,0 km/h S 0,0 W/qm 0,0 nein 20:05
20:10-0,4 °C 3,3 °C 3,3 °C 71 % 1027,5 hPa 0,0 mm 1,9 mm 0,0 km/h 0,0 km/h S 0,0 W/qm 0,0 nein 20:10
20:15-0,6 °C 3,3 °C 3,3 °C 73 % 1027,6 hPa 0,0 mm - 0,0 km/h 0,0 km/h S 0,0 W/qm 0,0 nein 20:15
20:20-0,6 °C 3,3 °C 3,3 °C 73 % 1027,6 hPa 0,0 mm - 0,0 km/h 0,0 km/h S 0,0 W/qm 0,0 nein 20:20
20:25-0,7 °C 3,3 °C 3,3 °C 73 % 1027,8 hPa 0,0 mm - 0,0 km/h 0,0 km/h S 0,0 W/qm 0,0 nein 20:25
20:30-0,8 °C 3,3 °C 3,3 °C 73 % 1027,9 hPa 0,0 mm - 0,0 km/h 0,0 km/h S 0,0 W/qm 0,0 nein 20:30
20:35-1,1 °C 3,3 °C 3,3 °C 73 % 1028,0 hPa 0,0 mm - 0,0 km/h 0,0 km/h S 0,0 W/qm 0,0 nein 20:35
20:40-1,1 °C 3,3 °C 3,3 °C 73 % 1028,1 hPa 0,0 mm - 0,0 km/h 0,0 km/h S 0,0 W/qm 0,0 nein 20:40
20:45-1,2 °C 3,3 °C 3,3 °C 74 % 1028,0 hPa 0,0 mm - 0,0 km/h 0,0 km/h S 0,0 W/qm 0,0 nein 20:45
20:50-1,2 °C 3,3 °C 3,3 °C 75 % 1028,1 hPa 0,0 mm - 0,0 km/h 0,0 km/h S 0,0 W/qm 0,0 nein 20:50
20:55-1,3 °C 3,3 °C 3,3 °C 74 % 1028,3 hPa 0,0 mm - 0,0 km/h 0,0 km/h S 0,0 W/qm 0,0 nein 20:55
21:00-1,4 °C 2,8 °C 3,3 °C 75 % 1028,4 hPa 0,0 mm - 0,0 km/h 0,0 km/h S 0,0 W/qm 0,0 nein 21:00
21:05-1,5 °C 2,8 °C 3,3 °C 74 % 1028,3 hPa 0,0 mm 1,9 mm 0,0 km/h 0,0 km/h S 0,0 W/qm 0,0 nein 21:05
21:10-1,4 °C 2,8 °C 3,3 °C 74 % 1028,4 hPa 0,0 mm 1,9 mm 0,0 km/h 0,0 km/h S 0,0 W/qm 0,0 nein 21:10
21:15-1,5 °C 2,8 °C 3,3 °C 74 % 1028,4 hPa 0,0 mm - 0,0 km/h 0,0 km/h S 0,0 W/qm 0,0 nein 21:15
21:20-1,7 °C 2,8 °C 3,3 °C 75 % 1028,4 hPa 0,0 mm - 0,0 km/h 0,0 km/h S 0,0 W/qm 0,0 nein 21:20
21:25-1,6 °C 2,8 °C 3,3 °C 75 % 1028,5 hPa 0,0 mm - 0,0 km/h 0,0 km/h S 0,0 W/qm 0,0 nein 21:25
21:30-1,9 °C 2,8 °C 3,3 °C 76 % 1028,5 hPa 0,0 mm - 0,0 km/h 0,0 km/h S 0,0 W/qm 0,0 nein 21:30
21:35-1,8 °C 2,8 °C 3,3 °C 76 % 1028,4 hPa 0,0 mm - 0,0 km/h 0,0 km/h S 0,0 W/qm 0,0 nein 21:35
21:40-1,8 °C 2,8 °C 3,3 °C 76 % 1028,4 hPa 0,0 mm - 0,0 km/h 0,0 km/h S 0,0 W/qm 0,0 nein 21:40
21:45-1,8 °C 2,8 °C 3,3 °C 76 % 1028,5 hPa 0,0 mm - 0,0 km/h 0,0 km/h S 0,0 W/qm 0,0 nein 21:45
21:50-1,9 °C 2,8 °C 3,3 °C 77 % 1028,7 hPa 0,0 mm - 0,0 km/h 0,0 km/h S 0,0 W/qm 0,0 nein 21:50
21:55-1,9 °C 2,8 °C 3,3 °C 77 % 1028,7 hPa 0,0 mm - 0,0 km/h 0,0 km/h S 0,0 W/qm 0,0 nein 21:55
UhrzeitTemperaturBoden 10cmBoden 20cmFeuchteLuftdruckNiederschlagEvapotranspirationWindWindböenWindrichtungSolarstrahlungUV-IndexSonne?Uhrzeit
22:00-2,2 °C 2,8 °C 3,3 °C 77 % 1028,7 hPa 0,0 mm - 0,0 km/h 0,0 km/h S 0,0 W/qm 0,0 nein 22:00
22:05-2,2 °C 2,8 °C 3,3 °C 78 % 1028,7 hPa 0,0 mm 1,9 mm 0,0 km/h 0,0 km/h S 0,0 W/qm 0,0 nein 22:05
22:10-2,3 °C 2,8 °C 3,3 °C 78 % 1028,7 hPa 0,0 mm 1,9 mm 0,0 km/h 0,0 km/h S 0,0 W/qm 0,0 nein 22:10
22:15-2,3 °C 2,8 °C 3,3 °C 78 % 1028,7 hPa 0,0 mm - 0,0 km/h 0,0 km/h S 0,0 W/qm 0,0 nein 22:15
22:20-2,4 °C 2,8 °C 3,3 °C 78 % 1028,7 hPa 0,0 mm - 0,0 km/h 0,0 km/h S 0,0 W/qm 0,0 nein 22:20
22:25-2,6 °C 2,8 °C 3,3 °C 79 % 1028,8 hPa 0,0 mm - 0,0 km/h 0,0 km/h S 0,0 W/qm 0,0 nein 22:25
22:30-2,6 °C 2,8 °C 3,3 °C 79 % 1028,7 hPa 0,0 mm - 0,0 km/h 0,0 km/h S 0,0 W/qm 0,0 nein 22:30
22:35-2,6 °C 2,8 °C 3,3 °C 79 % 1028,8 hPa 0,0 mm - 0,0 km/h 0,0 km/h S 0,0 W/qm 0,0 nein 22:35
22:40-2,5 °C 2,8 °C 3,3 °C 78 % 1028,9 hPa 0,0 mm - 0,0 km/h 0,0 km/h S 0,0 W/qm 0,0 nein 22:40
22:45-2,6 °C 2,8 °C 3,3 °C 79 % 1028,8 hPa 0,0 mm - 0,0 km/h 0,0 km/h S 0,0 W/qm 0,0 nein 22:45
22:50-2,7 °C 2,8 °C 3,3 °C 80 % 1028,9 hPa 0,0 mm - 0,0 km/h 0,0 km/h S 0,0 W/qm 0,0 nein 22:50
22:55-2,7 °C 2,8 °C 3,3 °C 81 % 1028,9 hPa 0,0 mm - 0,0 km/h 0,0 km/h S 0,0 W/qm 0,0 nein 22:55
23:00-3,0 °C 2,8 °C 3,3 °C 80 % 1028,9 hPa 0,0 mm - 0,0 km/h 0,0 km/h S 0,0 W/qm 0,0 nein 23:00
23:05-3,1 °C 2,8 °C 3,3 °C 81 % 1028,9 hPa 0,0 mm 1,9 mm 0,0 km/h 0,0 km/h S 0,0 W/qm 0,0 nein 23:05
23:10-3,1 °C 2,8 °C 3,3 °C 81 % 1028,9 hPa 0,0 mm 1,9 mm 0,0 km/h 0,0 km/h S 0,0 W/qm 0,0 nein 23:10
23:15-3,2 °C 2,8 °C 3,3 °C 81 % 1029,1 hPa 0,0 mm - 0,0 km/h 0,0 km/h S 0,0 W/qm 0,0 nein 23:15
23:20-3,2 °C 2,8 °C 3,3 °C 82 % 1029,1 hPa 0,0 mm - 0,0 km/h 0,0 km/h S 0,0 W/qm 0,0 nein 23:20
23:25-3,2 °C 2,8 °C 3,3 °C 82 % 1029,2 hPa 0,0 mm - 0,0 km/h 0,0 km/h S 0,0 W/qm 0,0 nein 23:25
23:30-3,3 °C 2,8 °C 3,3 °C 82 % 1029,2 hPa 0,0 mm - 0,0 km/h 0,0 km/h S 0,0 W/qm 0,0 nein 23:30
23:35-3,3 °C 2,8 °C 3,3 °C 82 % 1029,1 hPa 0,0 mm - 0,0 km/h 0,0 km/h S 0,0 W/qm 0,0 nein 23:35
23:40-3,3 °C 2,8 °C 3,3 °C 82 % 1029,2 hPa 0,0 mm - 0,0 km/h 0,0 km/h S 0,0 W/qm 0,0 nein 23:40
23:45-3,4 °C 2,8 °C 3,3 °C 82 % 1029,2 hPa 0,0 mm - 0,0 km/h 0,0 km/h S 0,0 W/qm 0,0 nein 23:45
23:50-3,6 °C 2,8 °C 3,3 °C 82 % 1029,2 hPa 0,0 mm - 0,0 km/h 0,0 km/h S 0,0 W/qm 0,0 nein 23:50
23:55-3,6 °C 2,8 °C 3,3 °C 82 % 1029,2 hPa 0,0 mm - 0,0 km/h 0,0 km/h S 0,0 W/qm 0,0 nein 23:55
Gesamt: 0,6 °C 2,2 °C 2,8 °C 67 % 1027,4 hPa 0,0 mm 40,5 mm 1,1 km/h 3,8 km/h 0 172,9 W/qm 0,5 ja

Insgesamt 288 Zeilen mal 13 Spalten = 3744 Werte werden angezeigt.

www.wetter-rosstal.de   •   www.wetter-franken.de   •   www.lightningmaps.org   •   Start   •   Kontakt / Datenschutz   •   PC-Kümmerer